Regional Weather Roundup
Issued by NWS Upton, NY

Current Version | Previous Version | Text Only | Print | Product List | Glossary On
Versions: 1 2 3 4 5 6 7 8 9 10 11 12 13 14 15 16 17 18 19 20 21 22 23 24 25 26 27
000 ASUS41 KOKX 101608 RWROKX REGIONAL WEATHER ROUNDUP NATIONAL WEATHER SERVICE NEW YORK NY 1100 AM EST SUN DEC 10 2017 NOTE: "FAIR" INDICATES FEW OR NO CLOUDS BELOW 12,000 FEET WITH NO SIGNIFICANT WEATHER AND/OR OBSTRUCTIONS TO VISIBILITY. NYZ071-072-176-178-NJZ106-104-101700- NEW YORK CITY METRO AREA CITY SKY/WX TMP DP RH WIND PRES REMARKS Central Park SUNNY 34 23 64 VRB6 29.93F WCI 29 Bronx Bot Gard N/A 36 23 60 W13 29.92S WCI 27 Bronx Lehman C N/A 34 23 64 W8 N/A WCI 27 LaGuardia APRT SUNNY 37 23 56 W12G20 29.91F WCI 29 Queens College N/A 34 23 64 W10 N/A WCI 26 Kennedy INTL SUNNY 34 24 67 W14 29.94S WCI 25 Breezy Point N/A 34 N/A N/A W10G17 N/A WCI 26 Brooklyn Coll N/A 34 23 64 W9 N/A WCI 26 Staten Island N/A 34 23 64 W8 N/A WCI 27 Newark/Liberty SUNNY 35 23 61 W12 29.92F WCI 27 Teterboro SUNNY 36 22 56 W10 29.91S WCI 28 $$ NYZ177-179-078>081-101700- LONG ISLAND NEW YORK CITY SKY/WX TMP DP RH WIND PRES REMARKS Jones Beach N/A 34 N/A N/A W17G23 N/A WCI 23 Wantagh N/A 34 25 69 W10 N/A WCI 26 Matinecock PT N/A 36 N/A N/A W20 N/A WCI 25 Farmingdale SUNNY 34 23 64 W8 29.92S WCI 27 MacArthur/ISP SUNNY 34 25 69 W13 29.90S WCI 25 Shirley SUNNY 35 27 72 W15 29.90S WCI 25 Mt Sinai Harb N/A N/A N/A N/A W8G14 N/A Westhampton SUNNY 36 28 73 W10 29.89S WCI 28 East Hampton FAIR 37 26 65 W10G18 29.87S WCI 30 Southold N/A 37 28 70 W10 N/A WCI 30 Montauk N/A 41 27 57 W12G22 29.87R $$ NYZ052-065-067-101700- HUDSON VALLEY CITY SKY/WX TMP DP RH WIND PRES REMARKS White Plains SUNNY 33 21 61 W9 29.87S WCI 25 Larchmont Harb N/A 34 N/A N/A W10 N/A WCI 26 Croton On Huds N/A 36 N/A N/A W12 N/A WCI 27 Somers N/A 32 21 64 W5 N/A WCI 27 Brewster N/A 32 21 64 NW9 N/A WCI 24 Newburgh SUNNY 30 23 74 W16 29.88S WCI 19 Montgomery MOSUNNY 32 22 66 SW8 29.87S WCI 25 Otisville N/A 30 21 69 W8 N/A WCI 23 Warwick N/A 32 21 64 W12 N/A WCI 23 Suffern N/A 32 21 64 SW5 N/A WCI 27 Poughkeepsie SUNNY 33 21 61 SW16 29.87S WCI 23 Albany PTSUNNY 30 24 78 SW7 29.82S WCI 23 $$ NJZ001-105-106-008-010-013-015-019>022-104-101700- NEW JERSEY CITY SKY/WX TMP DP RH WIND PRES REMARKS Newark/Liberty SUNNY 35 23 61 W12 29.92F WCI 27 Teterboro SUNNY 36 22 56 W10 29.91S WCI 28 Caldwell SUNNY 35 22 58 W8 29.92S WCI 29 Somerville SUNNY 36 24 62 VRB5 29.92F WCI 32 Linden FAIR 35 23 62 W12G20 29.93F WCI 26 Perth Amboy N/A 34 N/A N/A W15 N/A WCI 24 Sussex SUNNY 34 23 64 SW8 29.88F WCI 27 Andover N/A 32 22 66 VRB5 29.90F WCI 27 Trenton SUNNY 35 22 58 W13 29.95S WCI 26 Millville SUNNY 36 27 69 W13 30.02R WCI 27 Atlantic City SUNNY 37 26 64 W13G23 30.00R WCI 29 Wrightstown SUNNY 35 24 65 W9 29.94S WCI 28 Toms River SUNNY 35 30 82 W12 29.97F WCI 27 Belmar SUNNY 34 24 67 W10 29.95F WCI 26 $$ PAZ047>061-062-071-101700- EASTERN PENNSYLVANIA CITY SKY/WX TMP DP RH WIND PRES REMARKS Philadelphia SUNNY 36 23 59 W15 30.00S WCI 27 Allentown MOSUNNY 34 23 64 SW12 29.94R WCI 25 Scranton PTSUNNY 30 23 75 SW6 29.88F WCI 24 $$ CTZ002-004>006-009-010-012-RIZ004-006-007-MAZ004-011-015-101700- SOUTHERN NEW ENGLAND IN CT CITY SKY/WX TMP DP RH WIND PRES REMARKS Bradley INTL MOSUNNY 34 24 67 SW8 29.84R WCI 27 Hartford SUNNY 35 25 66 VRB7 29.85S WCI 29 Danbury SUNNY 34 21 59 W12G21 29.87S WCI 25 Wtrbury/Oxford SUNNY 34 24 67 W6 29.84S WCI 29 Norwalk Harbor N/A 34 N/A N/A W16 N/A WCI 23 Bridgeport SUNNY 36 24 62 W15G21 29.88S WCI 27 Meriden SUNNY 34 23 64 W6 29.86S WCI 29 New Haven SUNNY 36 23 59 W9 29.87S WCI 29 Chester FAIR 36 23 60 VRB7G14 29.84S WCI 30 Groton SUNNY 36 25 64 W10 29.86R WCI 28 Wilimantic SUNNY 34 25 69 W5 29.84S WCI 30 IN RI CITY SKY/WX TMP DP RH WIND PRES REMARKS Providence MOSUNNY 36 25 64 W10 29.83R WCI 28 Block Island MOSUNNY 38 25 59 W13G24 29.85R WCI 30 Westerly SUNNY 37 28 70 W5 29.86R WCI 33 IN MA CITY SKY/WX TMP DP RH WIND PRES REMARKS Boston MOSUNNY 35 24 64 W14G21 29.78R WCI 26 Worcester SUNNY 29 21 72 W15 29.75R WCI 18 Westfield PTSUNNY 32 23 69 SW9 29.82S WCI 24 Provincetown MOSUNNY 38 29 70 W17 29.78R WCI 28 Nantucket SUNNY 40 31 70 W15G23 29.81R WCI 32 $$ ANZ330-335-338-340-345-350-353-355-101700- COASTAL MARINE OBSERVATIONS STATION/POSITION TIME SKY/WX TEMP WIND PRES VSBY WAVE AIR SEA DIR/SP/G HT/PER (UTC) (F) (DEG/KT/KT) (MB) (MI) (FT/S) NY HARB ENTRANCE 1450 36 52 280/ 23/ 27 1012.7 5/10 20 S FIRE ISLAND 1450 38 53 290/ 21/ 25 1013.0 6/10 GREAT SOUTH BAY 1530 35 45 280/ 14/ 17 N/A HUDSON CANYON 1550 42 56 300/ 17/ 23 1013.1 9/10 KINGS POINT 1530 34 45 320/ 14/ 17 1013.9 EXECUTION ROCKS 1545 39 250/ 14/ 17 N/A WESTERN LI SOUND 1449 35 270/ 14/ 19 N/A 1/ 3 CENTRAL LI SOUND NOT AVBL ROBBINS REEF 1530 33 280/ 16/ 19 1014.0 $$ >>>>>>>>>>>>>>>>>>>>>>>>>>>> KEY <<<<<<<<<<<<<<<<<<<<<<<<<<< > < > SKY/WX - Sky Condition/Present Weather < > TMP - Temperature in Fahrenheit < > DP - Dew Point in Fahrenheit < > RH - Relative Humidity in Percent < > WIND - Direction (from) and Speed in MPH < > PRES - Mean Sea Level Pressure (inches of Hg) < > WCI - Wind Chill Index < > VSB - VISIBILITY IN MILES < > HX - HEAT INDEX < > TC - TEMPERATURE IN CELSIUS < > VRB - VARIABLE WIND DIRECTION < > < >>>>>>>>>>>>>>>>>>>>>>>>>>>> KEY <<<<<<<<<<<<<<<<<<<<<<<<<<<

USA.gov is the U.S. government's official web portal to all federal, state and local government web resources and services.